TimeCET,TemperatureF,Dew PointF,Humidity,Sea Level PressureIn,VisibilityMPH,Wind Direction,Wind SpeedMPH,Gust SpeedMPH,PrecipitationIn,Events,Conditions,WindDirDegrees,DateUTC
12:55 AM,28.4,21.2,74,29.95,-9999.0,Calm,Calm,-,N/A,,Clear,0,2012-11-17 23:55:00
1:55 AM,28.4,21.2,74,29.95,-9999.0,Calm,Calm,-,N/A,,Clear,0,2012-11-18 00:55:00
2:55 AM,26.6,21.2,80,29.95,-9999.0,Calm,Calm,-,N/A,,Clear,0,2012-11-18 01:55:00
3:55 AM,26.6,21.2,80,29.92,-9999.0,Calm,Calm,-,N/A,,Clear,360,2012-11-18 02:55:00
4:55 AM,26.6,21.2,80,29.92,-9999.0,Calm,Calm,-,N/A,,Clear,0,2012-11-18 03:55:00
5:55 AM,26.6,21.2,80,29.92,-9999.0,Calm,Calm,-,N/A,,Clear,0,2012-11-18 04:55:00
6:55 AM,26.6,21.2,80,29.92,-9999.0,Calm,Calm,-,N/A,,Clear,0,2012-11-18 05:55:00
7:55 AM,26.6,21.2,80,29.92,-9999.0,Calm,Calm,-,N/A,,Clear,0,2012-11-18 06:55:00
8:55 AM,26.6,21.2,80,29.95,-9999.0,Calm,Calm,-,N/A,,Clear,0,2012-11-18 07:55:00
9:55 AM,33.8,24.8,70,29.95,-9999.0,Calm,Calm,-,N/A,,Clear,0,2012-11-18 08:55:00
10:55 AM,37.4,19.4,48,29.95,-9999.0,SW,4.6,-,N/A,,Clear,230,2012-11-18 09:55:00
11:55 AM,37.4,19.4,48,29.95,-9999.0,SSW,6.9,-,N/A,,Clear,200,2012-11-18 10:55:00
12:55 PM,37.4,19.4,48,29.95,-9999.0,South,8.1,-,N/A,,Clear,190,2012-11-18 11:55:00
1:55 PM,37.4,21.2,52,29.95,-9999.0,SSW,5.8,-,N/A,,Clear,200,2012-11-18 12:55:00
2:55 PM,37.4,21.2,52,29.92,-9999.0,SSW,5.8,-,N/A,,Clear,200,2012-11-18 13:55:00
3:55 PM,37.4,19.4,48,29.92,-9999.0,ESE,3.5,-,N/A,,Clear,120,2012-11-18 14:55:00
4:55 PM,35.6,19.4,52,29.92,-9999.0,North,3.5,-,N/A,,Clear,10,2012-11-18 15:55:00
5:55 PM,32.0,21.2,64,29.92,-9999.0,Variable,2.3,-,N/A,,Clear,0,2012-11-18 16:55:00
6:55 PM,32.0,21.2,64,29.95,-9999.0,Calm,Calm,-,N/A,,Clear,0,2012-11-18 17:55:00
7:55 PM,30.2,21.2,69,29.95,-9999.0,Calm,Calm,-,N/A,,Clear,0,2012-11-18 18:55:00
8:55 PM,30.2,21.2,69,29.95,-9999.0,NE,3.5,-,N/A,,Clear,40,2012-11-18 19:55:00
9:55 PM,30.2,21.2,69,29.95,-9999.0,NNE,3.5,-,N/A,,Clear,20,2012-11-18 20:55:00
10:55 PM,30.2,21.2,69,29.95,-9999.0,North,3.5,-,N/A,,Clear,10,2012-11-18 21:55:00
11:55 PM,30.2,21.2,69,29.95,-9999.0,North,4.6,-,N/A,,Clear,10,2012-11-18 22:55:00